Rhodes, Greece

3:42 PM EET on December 16, 2017 (GMT +0200)
Diagoras

Weather History for LGRP - January, 2013

Change the Weather History Date:

Saturday, January 26, 2013

  Actual Average Record
Temperature  
Mean Temperature 57 °F -  
Max Temperature 61 °F 59 °F 64 °F (2007)
Min Temperature 53 °F 48 °F 35 °F (2016)
Degree Days  
Heating Degree Days 8    
Growing Degree Days 7 (Base 50)    
Moisture  
Dew Point 50 °F    
Average Humidity 73    
Maximum Humidity 88    
Minimum Humidity 40    
Precipitation  
Precipitation 0.28 in 0.16 in - ()
Sea Level Pressure  
Sea Level Pressure 29.67 in    
Wind  
Wind Speed 8 mph ()    
Max Wind Speed 14 mph    
Max Gust Speed 30 mph    
Visibility 5.9 miles    
Events Rain    
Averages and records for this station are not official NWS values.
T = Trace of Precipitation, MM = Missing Value Source: Averaged Metar Reports

Daily Weather History Graph

Daily Weather History Graph

Search for Another Location

Airport or City:

Trip Planner

Search our weather history database for the weather conditions in past years. The results will help you decide how hot, cold, wet, or windy it might be!

Date:

Astronomy

Jan. 26, 2013 Rise Set
Actual Time 7:13 AM EET 5:27 PM EET
Civil Twilight 6:45 AM EET 5:54 PM EET
Nautical Twilight 6:14 AM EET 6:26 PM EET
Astronomical Twilight 5:44 AM EET 6:56 PM EET
Moon 5:02 PM EET (1/26) 6:19 AM EET (1/26)
Length of Visible Light 11h 08m
Length of Day
10h 14m
Waxing Gibbous, 99% of the Moon is Illuminated
Jan 26
Waxing Gibbous
Jan 27
Full
Feb 3
Last Quarter
Feb 10
New
Feb 17
First Quarter

Hourly Weather History & Observations

Time (EET) Temp. Dew Point Humidity Pressure Visibility Wind Dir Wind Speed Gust Speed Precip Events Conditions
12:20 AM 59.0 °F 48.2 °F 67% 29.77 in 6.2 mi SSW 9.2 mph - N/A   Mostly Cloudy
12:50 AM 59.0 °F 48.2 °F 67% 29.77 in 6.2 mi Variable 3.5 mph - N/A   Mostly Cloudy
1:20 AM 59.0 °F 48.2 °F 67% 29.77 in 6.2 mi Variable 9.2 mph - N/A   Mostly Cloudy
1:50 AM 59.0 °F 48.2 °F 67% 29.74 in 6.2 mi Variable 9.2 mph 29.9 mph N/A   Mostly Cloudy
2:00 AM 59 °F 48 °F 58% 29.75 in 6 mi 9.2 mph - -   Mostly Cloudy
2:20 AM 59.0 °F 48.2 °F 67% 29.74 in 6.2 mi Variable 6.9 mph 19.6 mph N/A   Mostly Cloudy
2:50 AM 59.0 °F 50.0 °F 72% 29.74 in 6.2 mi ESE 5.8 mph 17.3 mph N/A   Mostly Cloudy
3:20 AM 59.0 °F 50.0 °F 72% 29.71 in 6.2 mi Variable 3.5 mph - N/A   Mostly Cloudy
3:50 AM 59.0 °F 55.4 °F 88% 29.71 in 6.2 mi Variable 6.9 mph - N/A Rain Light Rain
4:20 AM 59.0 °F 55.4 °F 88% 29.68 in 6.2 mi Variable 8.1 mph 19.6 mph N/A Rain Light Rain
4:50 AM 59.0 °F 55.4 °F 88% 29.68 in 6.2 mi Variable 6.9 mph 24.2 mph N/A   Mostly Cloudy
5:20 AM 59.0 °F 55.4 °F 88% 29.68 in 6.2 mi Variable 6.9 mph 19.6 mph N/A   Overcast
5:50 AM 60.8 °F 55.4 °F 82% 29.68 in 6.2 mi Variable 12.7 mph 24.2 mph N/A   Overcast
6:20 AM 60.8 °F 55.4 °F 82% 29.68 in 6.2 mi SSE 9.2 mph 23.0 mph N/A   Light Drizzle
6:50 AM 60.8 °F 53.6 °F 77% 29.68 in 6.2 mi South 12.7 mph 24.2 mph N/A   Overcast
7:20 AM 60.8 °F 53.6 °F 77% 29.68 in 6.2 mi Variable 13.8 mph 27.6 mph N/A   Overcast
7:50 AM 60.8 °F 42.8 °F 52% 29.65 in 6.2 mi Variable 12.7 mph 25.3 mph N/A   Mostly Cloudy
8:00 AM 61 °F 43 °F 40% 29.67 in 6 mi South 12.7 mph - -  
8:20 AM 60.8 °F 42.8 °F 52% 29.65 in 6.2 mi South 13.8 mph 26.5 mph N/A   Mostly Cloudy
8:50 AM 60.8 °F 42.8 °F 52% 29.65 in 5.0 mi South 12.7 mph 25.3 mph N/A   Mostly Cloudy
9:20 AM 59.0 °F 46.4 °F 63% 29.68 in 4.3 mi South 11.5 mph 23.0 mph N/A Rain Light Rain
9:50 AM 59.0 °F 46.4 °F 63% 29.68 in 5.0 mi Variable 3.5 mph - N/A Rain Light Rain
10:20 AM 60.8 °F 50.0 °F 68% 29.68 in 5.0 mi South 6.9 mph 18.4 mph N/A   Overcast
10:50 AM 60.8 °F 50.0 °F 68% 29.68 in 3.7 mi South 8.1 mph 19.6 mph N/A Rain Rain
11:20 AM 60.8 °F 50.0 °F 68% 29.65 in 5.0 mi SSE 8.1 mph - N/A   Mostly Cloudy
11:50 AM 60.8 °F 50.0 °F 68% 29.65 in 5.6 mi SSE 8.1 mph 19.6 mph N/A Rain Light Rain
12:20 PM 60.8 °F 50.0 °F 68% 29.65 in 5.6 mi South 11.5 mph 23.0 mph N/A Rain Light Rain
12:50 PM 59.0 °F 51.8 °F 77% 29.65 in 3.7 mi SSE 10.4 mph 21.9 mph N/A Rain Rain
1:20 PM 57.2 °F 53.6 °F 88% 29.62 in 5.0 mi Variable 3.5 mph - N/A   Mostly Cloudy
1:50 PM 57.2 °F 51.8 °F 82% 29.62 in 6.2 mi SW 5.8 mph - N/A   Mostly Cloudy
2:00 PM 58 °F 53 °F 76% 29.63 in 6 mi SW 5.8 mph - -   Partly Cloudy
2:20 PM 57.2 °F 51.8 °F 82% 29.59 in 6.2 mi SSW 9.2 mph - N/A   Mostly Cloudy
2:50 PM 60.8 °F 50.0 °F 68% 29.62 in 6.2 mi SSW 10.4 mph 21.9 mph N/A   Mostly Cloudy
3:20 PM 60.8 °F 50.0 °F 68% 29.62 in 6.2 mi SSW 13.8 mph 25.3 mph N/A   Mostly Cloudy
3:50 PM 60.8 °F 51.8 °F 72% 29.62 in 6.2 mi SSW 6.9 mph 18.4 mph N/A   Mostly Cloudy
4:20 PM 60.8 °F 51.8 °F 72% 29.62 in 6.2 mi SSW 6.9 mph 18.4 mph N/A   Mostly Cloudy
4:50 PM 59.0 °F 53.6 °F 82% 29.62 in 6.2 mi SSW 9.2 mph 25.3 mph N/A   Mostly Cloudy
5:20 PM 59.0 °F 53.6 °F 82% 29.62 in 6.2 mi SSW 9.2 mph 25.3 mph N/A   Mostly Cloudy
5:50 PM 55.4 °F 50.0 °F 82% 29.62 in 6.2 mi South 6.9 mph - N/A   Mostly Cloudy
6:20 PM 55.4 °F 50.0 °F 82% 29.62 in 6.2 mi South 6.9 mph - N/A   Mostly Cloudy
6:50 PM 55.4 °F 48.2 °F 77% 29.65 in 6.2 mi SSW 12.7 mph - N/A   Mostly Cloudy
7:20 PM 55.4 °F 48.2 °F 77% 29.65 in 6.2 mi SSW 5.8 mph - N/A   Mostly Cloudy
7:50 PM 55.4 °F 48.2 °F 77% 29.65 in 6.2 mi South 6.9 mph - N/A   Mostly Cloudy
8:00 PM 55 °F 48 °F 71% 29.65 in 6 mi South 6.9 mph - -   Partly Cloudy
8:20 PM 55.4 °F 48.2 °F 77% 29.65 in 6.2 mi South 6.9 mph - N/A   Mostly Cloudy
8:50 PM 55.4 °F 46.4 °F 72% 29.65 in 6.2 mi South 6.9 mph - N/A   Mostly Cloudy
9:20 PM 55.4 °F 46.4 °F 72% 29.65 in 6.2 mi South 9.2 mph 20.7 mph N/A   Mostly Cloudy
9:50 PM 55.4 °F 50.0 °F 82% 29.65 in 6.2 mi SSW 8.1 mph - N/A   Scattered Clouds
10:20 PM 55.4 °F 50.0 °F 82% 29.65 in 6.2 mi SSW 5.8 mph - N/A   Scattered Clouds
10:50 PM 53.6 °F 46.4 °F 77% 29.68 in 6.2 mi SSW 4.6 mph - N/A   Scattered Clouds
11:20 PM 53.6 °F 46.4 °F 77% 29.68 in 6.2 mi Variable 3.5 mph - N/A   Scattered Clouds
11:50 PM 53.6 °F 46.4 °F 77% 29.68 in 6.2 mi Variable 3.5 mph - N/A   Scattered Clouds